1506960001.12,3265,17.25,74136.0,2.43,-42.13,-42.13,0,*4A
1506960002.38,3266,17.31,74138.8,2.43,-42.13,-42.19,0,*43
1506960003.63,3267,17.31,74140.5,2.43,-41.99,-42.19,0,*43
1506960004.85,3268,17.31,74140.3,2.43,-41.99,-42.13,0,*46
1506960006.1,3269,17.25,74136.8,2.41,-41.81,-41.93,0,*47
1506960007.34,3270,17.31,74138.0,2.41,-41.93,-41.93,0,*4C
1506960008.57,3271,17.31,74142.5,2.43,-41.99,-42.13,0,*4E
1506960009.79,3272,17.31,74144.0,2.43,-41.99,-41.99,0,*4C
1506960011.01,3273,17.31,74142.3,2.41,-41.73,-41.93,0,*41
1506960012.28,3274,17.31,74140.5,2.43,-41.81,-41.81,0,*4A
1506960013.53,3275,17.25,74138.0,2.41,-41.93,-41.93,0,*49
1506960014.73,3276,17.25,74140.5,2.41,-42.13,-42.13,0,*4A
1506960015.95,3277,17.25,74138.0,2.41,-41.73,-41.93,0,*45
1506960017.2,3278,17.31,74140.0,2.39,-42.19,-42.25,0,*44
1506960018.42,3279,17.25,74140.3,2.39,-41.87,-41.99,0,*45
1506960019.64,3280,17.25,74140.0,2.39,-41.99,-41.99,0,*4C
1506960020.86,3281,17.25,74140.8,2.39,-41.87,-41.99,0,*42
1506960022.13,3282,17.25,74142.8,2.39,-42.19,-42.05,0,*43
1506960023.35,3283,17.25,74140.5,2.39,-41.99,-41.99,0,*4F
1506960024.57,3284,17.25,74142.5,2.39,-41.87,-41.99,0,*47
1506960025.82,3285,17.25,74140.5,2.37,-41.93,-42.05,0,*4B
1506960027.02,3286,17.31,74144.8,2.37,-41.73,-41.87,0,*4F
1506960028.28,3287,17.25,74142.3,2.37,-41.67,-41.67,0,*45
1506960029.5,3288,17.31,74146.3,2.39,-41.61,-41.61,0,*44
1506960030.7,3289,17.31,74144.8,2.37,-41.87,-41.73,0,*40
1506960031.96,3290,17.25,74140.0,2.37,-41.55,-41.67,0,*42
1506960033.15,3291,17.25,74138.8,2.37,-41.41,-41.49,0,*4A
1506960034.35,3292,17.25,74140.0,2.37,-41.11,-41.11,0,*41
1506960035.56,3293,17.25,74138.0,2.37,-41.03,-41.03,0,*40
1506960036.81,3294,17.25,74136.3,2.37,-41.55,-41.55,0,*47
1506960038.03,3295,17.25,74140.3,2.39,-41.41,-41.49,0,*40
1506960039.25,3296,17.25,74142.3,2.39,-41.41,-41.49,0,*43
1506960040.47,3297,17.31,74146.8,2.39,-41.61,-41.73,0,*49
1506960041.67,3298,17.31,74148.5,2.37,-41.73,-41.73,0,*4B
1506960042.9,3299,17.25,74148.3,2.37,-41.67,-41.73,0,*4F
1506960044.13,3300,17.25,74150.5,2.37,-41.67,-41.73,0,*4E
1506960045.35,3301,17.25,74144.8,2.37,-41.87,-41.93,0,*4F
1506960046.57,3302,17.25,74146.3,2.37,-41.93,-42.13,0,*42
1506960047.8,3303,17.25,74148.3,2.37,-41.55,-41.73,0,*4C
1506960049.01,3304,17.25,74150.8,2.35,-41.87,-41.93,0,*48
1506960050.26,3305,17.25,74148.5,2.33,-42.13,-42.19,0,*40
1506960051.53,3306,17.31,74152.0,2.33,-41.81,-41.93,0,*4A
1506960052.78,3307,17.25,74154.8,2.33,-42.13,-42.19,0,*42
1506960054.03,3308,17.25,74150.0,2.33,-42.19,-42.37,0,*4B
1506960055.28,3309,17.31,74146.8,2.33,-41.81,-41.99,0,*4F
1506960056.52,3310,17.25,74142.0,2.33,-41.73,-41.81,0,*43
1506960057.76,3311,17.31,74148.5,2.33,-41.81,-42.13,0,*47
1506960059.01,3312,17.25,74146.5,2.33,-41.29,-41.55,0,*47
1506960060.2,3313,17.25,74142.3,2.35,-41.73,-41.99,0,*4F
1506960061.45,3314,17.31,74146.5,2.33,-41.81,-42.13,0,*42
1506960062.65,3315,17.31,74140.3,2.27,-41.41,-41.87,0,*44
1506960063.86,3316,17.31,74136.5,2.29,-41.49,-41.73,0,*4A
1506960065.13,3317,17.25,74138.3,2.29,-41.55,-41.93,0,*48
1506960066.34,3318,17.25,74136.8,2.29,-41.61,-41.99,0,*4A
1506960067.59,3319,17.25,74128.8,2.29,-41.35,-41.49,0,*47
1506960068.83,3320,17.25,74128.8,2.29,-41.11,-41.35,0,*40
1506960070.07,3321,17.31,74134.8,2.29,-41.11,-41.35,0,*41
1506960071.29,3322,17.25,74130.3,2.29,-41.49,-41.61,0,*4E
1506960072.5,3323,17.31,74136.5,2.29,-41.29,-41.49,0,*43
1506960073.78,3324,17.31,74136.0,2.33,-41.35,-41.55,0,*4F
1506960074.98,3325,17.25,74132.3,2.35,-40.91,-41.03,0,*44
1506960076.17,3326,17.25,74138.0,2.35,-41.11,-41.29,0,*46
1506960077.4,3327,17.31,74138.3,2.33,-41.17,-41.29,0,*47
1506960078.62,3328,17.25,74134.0,2.35,-41.41,-41.55,0,*46
1506960079.82,3329,17.25,74132.0,2.35,-41.03,-41.11,0,*41
1506960081.02,3330,17.25,74134.5,2.35,-41.03,-41.03,0,*4A
1506960082.28,3331,17.25,74134.5,2.33,-40.91,-40.97,0,*4B
1506960083.47,3332,17.25,74136.3,2.35,-41.11,-41.41,0,*4D
1506960084.66,3333,17.25,74140.3,2.35,-41.29,-41.49,0,*4F
1506960085.88,3334,17.25,74136.8,2.35,-41.55,-41.87,0,*41
1506960087.1,3335,17.25,74136.0,2.35,-41.49,-41.55,0,*42
1506960088.33,3336,17.25,74136.8,2.37,-41.41,-41.55,0,*4B
1506960089.56,3337,17.25,74134.3,2.37,-41.41,-41.55,0,*4A
1506960090.76,3338,17.25,74136.8,2.37,-41.03,-41.29,0,*48
1506960091.99,3339,17.31,74142.5,2.37,-41.49,-41.67,0,*4D
1506960093.22,3340,17.25,74142.5,2.37,-41.23,-41.41,0,*4B
1506960094.45,3341,17.25,74140.8,2.37,-41.67,-41.73,0,*4B
1506960095.65,3342,17.25,74138.5,2.35,-41.73,-41.87,0,*44
1506960096.87,3343,17.25,74136.0,2.35,-41.67,-41.73,0,*4B
1506960098.07,3344,17.25,74138.8,2.35,-41.73,-41.87,0,*42
1506960099.29,3345,17.25,74140.8,2.35,-41.23,-41.41,0,*4C
1506960100.51,3346,17.25,74144.0,2.35,-41.23,-41.29,0,*41
1506960101.74,3347,17.25,74140.3,2.35,-41.67,-41.73,0,*4F
1506960102.94,3348,17.25,74148.0,2.35,-41.87,-41.87,0,*45
1506960104.15,3349,17.25,74146.8,2.35,-41.73,-41.93,0,*4A
1506960105.37,3350,17.25,74144.0,2.35,-41.29,-41.55,0,*47
1506960106.61,3351,17.25,74148.8,2.35,-41.67,-41.93,0,*46
1506960107.85,3352,17.25,74150.3,2.33,-41.61,-41.81,0,*46
1506960109.08,3353,17.25,74150.5,2.35,-41.67,-41.87,0,*41
1506960110.32,3354,17.25,74150.5,2.35,-41.67,-41.93,0,*43
1506960111.56,3355,17.25,74150.0,2.33,-41.29,-41.55,0,*44
1506960112.76,3356,17.25,74146.5,2.35,-41.11,-41.29,0,*41
1506960113.98,3357,17.25,74144.5,2.35,-41.23,-41.49,0,*47
1506960115.22,3358,17.25,74146.3,2.33,-41.49,-41.81,0,*46
1506960116.41,3359,17.31,74148.8,2.35,-41.49,-41.73,0,*4C
1506960117.66,3360,17.25,74152.3,2.33,-41.55,-41.61,0,*4E
1506960118.84,3361,17.25,74148.8,2.35,-41.29,-41.49,0,*48
1506960120.04,3362,17.25,74144.5,2.35,-41.11,-41.41,0,*48
1506960121.29,3363,17.31,74152.0,2.33,-41.35,-41.41,0,*49
1506960122.51,3364,17.25,74150.8,2.33,-41.49,-41.61,0,*47
1506960123.75,3365,17.25,74150.3,2.33,-41.29,-41.35,0,*41
1506960124.95,3366,17.25,74152.3,2.35,-41.03,-41.11,0,*4A
1506960126.14,3367,17.25,74154.3,2.35,-41.11,-41.29,0,*43
1506960127.37,3368,17.25,74152.0,2.35,-41.23,-41.41,0,*43
1506960128.62,3369,17.25,74146.0,2.35,-41.23,-41.55,0,*47
1506960129.81,3370,17.31,74146.5,2.35,-41.29,-41.49,0,*48
1506960130.99,3371,17.31,74146.8,2.35,-41.29,-41.49,0,*49
1506960132.22,3372,17.25,74146.3,2.35,-41.41,-41.55,0,*49
1506960133.44,3373,17.25,74142.8,2.35,-41.23,-41.29,0,*47
1506960134.69,3374,17.25,74142.3,2.33,-41.11,-41.35,0,*4A
1506960135.88,3375,17.25,74142.5,2.35,-41.29,-41.41,0,*45
1506960137.09,3376,17.25,74142.5,2.35,-41.29,-41.55,0,*43
1506960138.31,3377,17.25,74142.3,2.35,-41.29,-41.55,0,*42
1506960139.5,3378,17.31,74142.3,2.35,-41.49,-41.61,0,*4C
1506960140.72,3379,17.25,74140.3,2.33,-41.49,-41.61,0,*4B
1506960141.96,3380,17.25,74138.5,2.33,-41.73,-41.81,0,*4A
1506960143.2,3381,17.25,74138.0,2.33,-41.61,-41.93,0,*4B
1506960144.45,3382,17.25,74134.3,2.35,-41.55,-41.81,0,*4A
1506960145.69,3383,17.25,74134.5,2.33,-41.81,-41.99,0,*4D
1506960146.94,3384,17.25,74134.5,2.33,-42.13,-42.19,0,*49
1506960148.16,3385,17.25,74132.8,2.33,-41.99,-42.13,0,*43
1506960149.41,3386,17.25,74134.3,2.33,-41.99,-42.19,0,*4A
1506960150.68,3387,17.25,74134.5,2.29,-41.93,-42.19,0,*4A
1506960151.9,3388,17.25,74140.5,2.29,-41.73,-41.99,0,*40
1506960153.12,3389,17.25,74136.3,2.27,-41.87,-42.05,0,*42
1506960154.34,3390,17.25,74134.5,2.27,-41.61,-41.81,0,*4D
1506960155.56,3391,17.25,74130.3,2.29,-41.11,-41.29,0,*47
1506960156.81,3392,17.25,74134.5,2.27,-41.35,-41.55,0,*47
1506960158.06,3393,17.25,74136.3,2.29,-41.35,-41.49,0,*45
1506960159.27,3394,17.25,74142.5,2.29,-41.49,-41.73,0,*40
1506960160.52,3395,17.25,74140.3,2.27,-41.55,-41.81,0,*4F
1506960161.76,3396,17.25,74146.0,2.29,-41.61,-41.81,0,*45
1506960163.0,3397,17.25,74150.0,2.27,-41.81,-42.05,0,*4B
1506960164.2,3398,17.25,74146.8,2.27,-41.99,-41.99,0,*4B
1506960165.44,3399,17.25,74146.3,2.29,-41.55,-41.61,0,*43
1506960166.7,3400,17.25,74150.5,2.27,-41.55,-41.67,0,*4C
1506960167.95,3401,17.25,74156.0,2.27,-41.67,-41.81,0,*44
1506960169.15,3402,17.25,74158.5,2.27,-41.41,-41.41,0,*4F
1506960170.37,3403,17.25,74146.0,2.27,-41.35,-41.41,0,*4D
1506960171.6,3404,17.25,74140.8,2.27,-41.41,-41.55,0,*4C
1506960172.81,3405,17.25,74150.3,2.29,-41.49,-41.49,0,*46
1506960174.03,3406,17.25,74162.0,2.29,-41.49,-41.61,0,*4F
1506960175.26,3407,17.25,74152.5,2.27,-41.67,-41.87,0,*44
1506960176.48,3408,17.25,74154.0,2.27,-41.87,-42.05,0,*4C
1506960177.7,3409,17.25,74158.8,2.27,-41.87,-42.05,0,*4D
1506960178.97,3410,17.25,74162.5,2.25,-41.67,-41.81,0,*46
1506960180.22,3411,17.25,74160.3,2.27,-41.55,-41.55,0,*4D
1506960181.43,3412,17.25,74162.8,2.27,-41.87,-41.87,0,*4E
1506960182.68,3413,17.25,74166.5,2.27,-41.55,-41.55,0,*4F
1506960183.93,3414,17.25,74160.0,2.29,-41.35,-41.29,0,*4B
1506960185.18,3415,17.25,74162.0,2.27,-41.35,-41.35,0,*49
1506960186.38,3416,17.25,74162.5,2.27,-41.41,-41.41,0,*4A
1506960187.6,3417,17.25,74156.3,2.29,-41.11,-41.11,0,*45
1506960188.85,3418,17.25,74156.3,2.27,-40.97,-40.85,0,*47
1506960190.08,3419,17.25,74154.0,2.29,-40.91,-40.91,0,*4B
1506960191.28,3420,17.25,74152.8,2.27,-41.17,-41.17,0,*4F
1506960192.5,3421,17.25,74152.0,2.29,-41.11,-40.91,0,*49
1506960193.7,3422,17.25,74154.5,2.27,-41.03,-41.17,0,*48
1506960194.95,3423,17.25,74150.8,2.29,-41.35,-41.29,0,*4F
1506960196.19,3424,17.25,74148.8,2.29,-41.49,-41.35,0,*4E
1506960197.44,3425,17.25,74150.5,2.29,-41.49,-41.55,0,*49
1506960198.69,3426,17.25,74150.3,2.33,-41.49,-41.55,0,*41
1506960199.96,3427,17.25,74150.5,2.29,-41.55,-41.55,0,*46
1506960201.2,3428,17.25,74144.8,2.27,-41.67,-41.81,0,*4F
1506960202.45,3429,17.25,74148.3,2.29,-41.55,-41.73,0,*4C
1506960203.67,3430,17.25,74146.8,2.29,-41.61,-41.73,0,*43
1506960204.87,3431,17.25,74144.3,2.27,-41.61,-41.61,0,*4F
1506960206.11,3432,17.25,74140.5,2.29,-41.55,-41.61,0,*45
1506960207.38,3433,17.25,74140.5,2.29,-41.35,-41.55,0,*45
1506960208.61,3434,17.25,74142.3,2.27,-41.35,-41.41,0,*49
1506960209.86,3435,17.25,74140.5,2.27,-41.23,-41.35,0,*4C
1506960211.09,3436,17.25,74140.5,2.27,-41.41,-41.55,0,*4D
1506960212.33,3437,17.25,74140.5,2.29,-41.35,-41.61,0,*46
1506960213.57,3438,17.25,74142.0,2.29,-41.29,-41.35,0,*45
1506960214.8,3439,17.25,74140.8,2.27,-41.35,-41.41,0,*44
1506960216.0,3440,17.25,74140.5,2.27,-41.41,-41.41,0,*49
1506960217.23,3441,17.25,74142.5,2.27,-41.67,-41.87,0,*46
1506960218.46,3442,17.25,74146.3,2.27,-41.61,-41.67,0,*4D
1506960219.68,3443,17.25,74140.8,2.27,-41.17,-41.35,0,*4A
1506960220.91,3444,17.25,74140.8,2.27,-41.41,-41.55,0,*48
1506960222.11,3445,17.25,74142.0,2.27,-41.87,-41.99,0,*43
1506960223.33,3446,17.25,74140.5,2.27,-41.87,-42.05,0,*46
1506960224.53,3447,17.25,74140.0,2.27,-41.87,-41.99,0,*41
1506960225.75,3448,17.25,74138.0,2.27,-41.61,-41.81,0,*4F
1506960227.0,3449,17.25,74140.0,2.25,-41.55,-41.61,0,*45
1506960228.25,3450,17.25,74140.0,2.25,-41.67,-41.87,0,*44
1506960229.47,3451,17.25,74138.8,2.25,-41.61,-41.61,0,*4B
1506960230.75,3452,17.25,74146.8,2.25,-41.23,-41.23,0,*48
1506960232.03,3453,17.25,74140.5,2.25,-41.67,-41.67,0,*49
1506960233.23,3454,17.25,74142.5,2.23,-41.73,-41.87,0,*43
1506960234.43,3455,17.25,74142.0,2.23,-41.87,-41.87,0,*49
1506960235.64,3456,17.25,74144.0,2.23,-41.55,-41.61,0,*4D
1506960236.84,3457,17.25,74140.5,2.23,-41.61,-41.49,0,*41
1506960238.12,3458,17.25,74142.3,2.25,-41.67,-41.67,0,*42
1506960239.31,3459,17.25,74142.5,2.23,-41.41,-41.49,0,*4D
1506960240.56,3460,17.25,74144.5,2.25,-41.55,-41.49,0,*44
1506960241.76,3461,17.25,74142.3,2.23,-41.61,-41.87,0,*46
1506960242.98,3462,17.25,74142.0,2.23,-41.67,-41.73,0,*48
1506960244.18,3463,17.25,74136.5,2.23,-41.73,-41.87,0,*47
1506960245.37,3464,17.25,74138.5,2.23,-41.73,-41.87,0,*40
1506960246.59,3465,17.25,74138.8,2.23,-41.67,-41.73,0,*4F
1506960247.87,3466,17.25,74140.0,2.21,-41.67,-41.81,0,*43
1506960249.12,3467,17.25,74142.0,2.21,-40.85,-41.03,0,*45
1506960250.34,3468,17.25,74142.0,2.21,-41.29,-41.29,0,*45
1506960251.57,3469,17.25,74138.3,2.21,-41.61,-41.61,0,*44
1506960252.84,3470,17.25,74138.3,2.21,-41.67,-41.93,0,*47
1506960254.09,3471,17.25,74138.0,2.21,-41.67,-41.73,0,*48
1506960255.34,3472,17.25,74144.5,2.21,-41.67,-41.73,0,*4B
1506960256.59,3473,17.25,74140.0,2.21,-41.93,-42.13,0,*44
1506960257.84,3474,17.25,74144.8,2.21,-41.87,-42.05,0,*41
1506960259.07,3475,17.25,74142.8,2.21,-42.13,-42.25,0,*4C
1506960260.3,3476,17.25,74146.0,2.21,-41.87,-41.87,0,*4A
1506960261.55,3477,17.25,74144.5,2.21,-41.61,-41.67,0,*4D
1506960262.78,3478,17.25,74148.8,2.19,-41.67,-41.73,0,*4A
1506960264.0,3479,17.25,74146.5,2.21,-41.49,-41.61,0,*4F
1506960265.22,3480,17.25,74144.5,2.21,-41.41,-41.61,0,*41
1506960266.44,3481,17.25,74146.5,2.21,-41.61,-41.61,0,*42
1506960267.67,3482,17.25,74146.8,2.19,-41.73,-41.67,0,*4F
1506960268.89,3483,17.25,74148.3,2.21,-41.73,-41.87,0,*4B
1506960270.11,3484,17.25,74152.3,2.19,-41.55,-41.49,0,*41
1506960271.37,3485,17.25,74150.0,2.21,-41.23,-41.11,0,*47
1506960272.63,3486,17.25,74144.8,2.21,-41.03,-40.85,0,*4A
1506960273.87,3487,17.25,74144.0,2.21,-40.53,-40.85,0,*4F
1506960275.08,3488,17.25,74142.5,2.23,-41.03,-41.03,0,*49
1506960276.28,3489,17.25,74138.0,2.23,-41.11,-41.03,0,*4B
1506960277.47,3490,17.25,74140.0,2.23,-41.11,-41.11,0,*40
1506960278.66,3491,17.25,74144.0,2.23,-41.29,-41.29,0,*41
1506960279.89,3492,17.25,74142.8,2.23,-41.23,-41.11,0,*43
1506960281.08,3493,17.25,74136.5,2.23,-41.11,-41.11,0,*43
1506960282.28,3494,17.25,74136.8,2.23,-41.41,-41.41,0,*44
1506960283.47,3495,17.25,74142.8,2.23,-41.41,-41.49,0,*4D
1506960284.67,3496,17.25,74140.3,2.23,-41.49,-41.61,0,*4C
1506960285.89,3497,17.25,74140.3,2.23,-41.67,-41.73,0,*42
1506960287.11,3498,17.25,74142.8,2.23,-41.67,-41.87,0,*46
1506960288.31,3499,17.25,74142.5,2.23,-41.41,-41.49,0,*41
1506960289.5,3500,17.25,74138.5,2.23,-41.49,-41.61,0,*42
1506960290.73,3501,17.25,74136.0,2.23,-41.61,-41.67,0,*4F
1506960291.98,3502,17.25,74132.5,2.21,-41.61,-41.67,0,*4E
1506960293.17,3503,17.25,74134.5,2.23,-41.49,-41.49,0,*4B
1506960294.37,3504,17.25,74116.3,2.23,-41.49,-41.49,0,*4C
1506960295.6,3505,17.25,74098.5,2.23,-41.93,-41.93,0,*4D
1506960296.87,3506,17.25,74084.3,2.21,-42.05,-42.05,0,*4C
1506960298.1,3507,17.25,74102.0,2.21,-42.13,-42.25,0,*48
1506960299.35,3508,17.25,74086.5,2.19,-41.35,-41.35,0,*49
1506960300.6,3509,17.25,74094.8,2.21,-41.11,-41.23,0,*42
1506960301.82,3510,17.25,74102.5,2.21,-41.29,-41.41,0,*45
1506960303.05,3511,17.25,74120.8,2.21,-41.61,-41.73,0,*49
1506960304.29,3512,17.25,74112.0,2.19,-41.81,-41.81,0,*42
1506960305.51,3513,17.25,74116.3,2.21,-41.29,-41.41,0,*46
1506960306.76,3514,17.25,74124.3,2.19,-41.81,-41.81,0,*44
1506960307.98,3515,17.25,74126.3,2.19,-41.93,-42.13,0,*4E
1506960309.22,3516,17.25,74132.3,2.19,-41.67,-41.93,0,*4D
1506960310.41,3517,17.25,74130.3,2.19,-41.99,-42.13,0,*46
1506960311.65,3518,17.25,74128.5,2.19,-41.93,-41.93,0,*48
1506960312.89,3519,17.25,74130.8,2.21,-42.05,-42.13,0,*45
1506960314.15,3520,17.25,74128.3,2.19,-42.19,-42.31,0,*49
1506960315.4,3521,17.25,74132.0,2.17,-42.19,-42.25,0,*43
1506960316.64,3522,17.25,74132.0,2.15,-42.57,-42.57,0,*4D
1506960317.88,3523,17.25,74130.8,2.17,-42.57,-42.63,0,*49
1506960319.12,3524,17.25,74130.0,2.15,-42.45,-42.57,0,*48
1506960320.37,3525,17.25,74130.0,2.17,-42.57,-42.63,0,*4F
1506960321.59,3526,17.25,74134.0,2.15,-42.57,-42.63,0,*4E
1506960322.83,3527,17.25,74140.3,2.15,-42.57,-42.57,0,*48
1506960324.06,3528,17.25,74134.3,2.13,-42.63,-42.63,0,*41
1506960325.26,3529,17.25,74134.8,2.11,-42.51,-42.63,0,*43
1506960326.48,3530,17.25,74138.0,2.11,-42.63,-42.69,0,*40
1506960327.73,3531,17.25,74138.3,2.11,-42.69,-42.83,0,*4F
1506960328.97,3532,17.25,74136.3,2.11,-42.69,-42.83,0,*4C
1506960330.19,3533,17.19,74130.5,2.11,-42.51,-42.45,0,*4C
1506960331.42,3534,17.25,74136.3,2.11,-42.25,-42.31,0,*4B
1506960332.64,3535,17.25,74140.8,2.07,-42.31,-42.37,0,*4E
1506960333.85,3536,17.25,74142.3,2.07,-42.51,-42.57,0,*4D
1506960335.09,3537,17.25,74140.0,2.07,-42.57,-42.57,0,*4A
1506960336.32,3538,17.25,74138.8,2.05,-42.63,-42.75,0,*40
1506960337.56,3539,17.25,74140.5,2.05,-42.37,-42.57,0,*40
1506960338.78,3540,17.25,74140.3,2.05,-42.63,-42.63,0,*48
1506960340.03,3541,17.25,74134.8,2.03,-41.93,-42.05,0,*43
1506960341.26,3542,17.25,74136.5,2.05,-42.37,-42.63,0,*4B
1506960342.52,3543,17.25,74138.3,2.05,-42.45,-42.57,0,*48
1506960343.77,3544,17.25,74140.0,2.05,-42.37,-42.45,0,*49
1506960345.03,3545,17.25,74136.5,2.05,-42.45,-42.57,0,*4E
1506960346.25,3546,17.25,74140.0,2.03,-42.37,-42.45,0,*4D
1506960347.47,3547,17.25,74142.8,2.03,-42.37,-42.45,0,*4C
1506960348.73,3548,17.25,74138.0,2.01,-42.25,-42.31,0,*41
1506960349.97,3549,17.25,74138.3,2.03,-42.05,-42.05,0,*47
1506960351.22,3550,17.25,74136.8,2.03,-42.05,-42.19,0,*42
1506960352.46,3551,17.25,74140.0,2.01,-42.05,-42.25,0,*4E
1506960353.68,3552,17.25,74136.5,2.03,-41.93,-41.99,0,*47
1506960354.94,3553,17.25,74136.5,2.01,-42.13,-42.31,0,*4E
1506960356.19,3554,17.25,74142.3,2.01,-42.25,-42.31,0,*4C
1506960357.46,3555,17.25,74136.8,2.01,-42.05,-42.05,0,*48
1506960358.68,3556,17.19,74136.0,2.03,-41.23,-41.17,0,*4E
1506960359.91,3557,17.25,74136.5,2.03,-41.61,-41.55,0,*4F
1506960361.15,3558,17.25,74136.3,2.03,-41.81,-41.93,0,*44
1506960362.43,3559,17.25,74138.3,2.01,-41.67,-41.81,0,*4C
1506960363.63,3560,17.25,74136.8,2.03,-41.41,-41.41,0,*4C
1506960364.88,3561,17.25,74144.5,2.03,-41.35,-41.35,0,*4D
1506960366.1,3562,17.25,74142.3,2.03,-40.85,-40.65,0,*40
1506960367.32,3563,17.25,74142.0,2.03,-40.59,-40.53,0,*45
1506960368.54,3564,17.25,74144.5,2.01,-41.41,-41.49,0,*42
1506960369.74,3565,17.25,74148.8,2.03,-41.03,-41.17,0,*4C
1506960370.97,3566,17.25,74150.0,2.03,-41.55,-41.41,0,*4F
1506960372.22,3567,17.25,74146.8,2.03,-40.85,-40.97,0,*48
1506960373.47,3568,17.19,74150.8,2.03,-41.55,-41.35,0,*42
1506960374.72,3569,17.25,74150.3,2.05,-41.73,-41.81,0,*4E
1506960375.99,3570,17.25,74152.5,2.05,-41.23,-41.35,0,*4C
1506960377.27,3571,17.19,74150.8,2.05,-41.23,-41.35,0,*4D
1506960378.52,3572,17.25,74150.3,2.05,-41.17,-41.23,0,*4E
1506960379.71,3573,17.25,74148.8,2.07,-41.17,-41.17,0,*4A
1506960380.99,3574,17.25,74150.5,2.05,-40.97,-40.97,0,*4F
1506960382.21,3575,17.19,74144.5,2.07,-40.79,-40.91,0,*4A
1506960383.42,3576,17.19,74144.3,2.07,-40.97,-41.17,0,*46
1506960384.65,3577,17.25,74148.0,2.07,-40.91,-40.97,0,*48
1506960385.87,3578,17.19,74150.0,2.07,-40.97,-41.29,0,*45
1506960387.06,3579,17.25,74148.8,2.07,-41.17,-41.29,0,*4D
1506960388.28,3580,17.19,74144.3,2.07,-41.17,-41.35,0,*46
1506960389.49,3581,17.25,74144.3,2.11,-41.03,-41.03,0,*40
1506960390.69,3582,17.25,74144.8,2.11,-41.03,-41.11,0,*40
1506960391.92,3583,17.25,74140.3,2.11,-40.73,-40.85,0,*4B
1506960393.12,3584,17.25,74140.3,2.11,-41.11,-41.11,0,*45
1506960394.34,3585,17.25,74142.3,2.11,-41.29,-41.23,0,*4E
1506960395.57,3586,17.25,74142.3,2.11,-41.23,-41.29,0,*4D
1506960396.79,3587,17.19,74140.0,2.11,-41.11,-41.23,0,*47
1506960398.0,3588,17.19,74138.3,2.11,-41.03,-41.11,0,*4A
1506960399.25,3589,17.19,74134.3,2.13,-41.23,-41.29,0,*40
1506960400.44,3590,17.19,74128.3,2.11,-41.29,-41.41,0,*4E
1506960401.64,3591,17.25,74122.8,2.11,-41.41,-41.61,0,*43
1506960402.83,3592,17.25,74128.8,2.11,-41.49,-41.61,0,*48
1506960404.02,3593,17.19,74118.8,2.11,-40.53,-40.73,0,*41
1506960405.27,3594,17.19,74122.0,2.11,-40.29,-40.41,0,*4A
1506960406.52,3595,17.19,74122.3,2.13,-40.41,-40.73,0,*46
1506960407.8,3596,17.19,74120.3,2.13,-40.41,-40.41,0,*44
1506960409.05,3597,17.19,74130.0,2.13,-40.41,-40.47,0,*43
1506960410.28,3598,17.19,74128.0,2.13,-40.91,-41.03,0,*40
1506960411.5,3599,17.25,74134.5,2.13,-41.29,-41.29,0,*4B
1506960412.69,3600,17.25,74128.3,2.11,-41.29,-41.41,0,*44
1506960413.91,3601,17.25,74132.8,2.13,-41.49,-41.61,0,*43
1506960415.13,3602,17.19,74132.0,2.13,-41.29,-41.41,0,*44
1506960416.32,3603,17.19,74128.0,2.11,-41.41,-41.61,0,*4B
1506960417.55,3604,17.19,74132.0,2.11,-41.49,-41.67,0,*42
1506960418.8,3605,17.25,74132.8,2.13,-41.49,-41.67,0,*41
1506960420.03,3606,17.25,74132.0,2.11,-41.49,-41.67,0,*40
1506960421.25,3607,17.19,74134.8,2.11,-41.49,-41.81,0,*49
1506960422.44,3608,17.25,74138.3,2.11,-41.29,-41.41,0,*4C
1506960423.64,3609,17.19,74134.5,2.11,-41.49,-41.61,0,*49
1506960424.84,3610,17.19,74134.3,2.11,-41.61,-41.87,0,*43
1506960426.05,3611,17.19,74134.3,2.07,-41.87,-41.93,0,*48
1506960427.29,3612,17.19,74134.3,2.07,-41.67,-41.93,0,*45
1506960428.54,3613,17.19,74134.3,2.05,-41.81,-41.99,0,*44
1506960429.76,3614,17.19,74132.5,2.05,-41.73,-41.99,0,*4E
1506960431.04,3615,17.19,74134.8,2.05,-41.93,-42.19,0,*4A
1506960432.28,3616,17.19,74130.5,2.05,-42.05,-42.37,0,*49
1506960433.55,3617,17.19,74130.0,2.05,-41.55,-41.55,0,*49
1506960434.8,3618,17.19,74130.8,2.07,-41.35,-41.35,0,*44
1506960436.08,3619,17.19,74132.3,2.05,-41.23,-41.35,0,*40
1506960437.36,3620,17.19,74132.5,2.05,-41.35,-41.55,0,*4B
1506960438.58,3621,17.19,74132.0,2.05,-41.17,-41.41,0,*4F
1506960439.83,3622,17.19,74134.8,2.05,-41.17,-41.23,0,*48
1506960441.1,3623,17.19,74134.5,2.05,-40.79,-40.85,0,*4D
1506960442.38,3624,17.19,74134.0,2.05,-41.23,-41.35,0,*4E
1506960443.57,3625,17.19,74134.5,2.07,-41.17,-41.29,0,*47
1506960444.81,3626,17.19,74136.0,2.05,-41.17,-41.23,0,*4C
1506960446.07,3627,17.25,74138.8,2.05,-41.03,-41.23,0,*48
1506960447.32,3628,17.19,74138.3,2.05,-41.23,-41.41,0,*41
1506960448.57,3629,17.19,74138.5,2.05,-41.61,-41.81,0,*4A
1506960449.81,3630,17.19,74134.5,2.05,-41.55,-41.73,0,*48
1506960451.06,3631,17.19,74136.0,2.05,-41.61,-41.81,0,*43
1506960452.28,3632,17.19,74132.5,2.05,-41.73,-41.99,0,*4A
1506960453.55,3633,17.19,74132.3,2.05,-41.81,-41.93,0,*4C
1506960454.78,3634,17.19,74138.3,2.05,-41.73,-41.93,0,*46
1506960455.98,3635,17.19,74136.0,2.03,-41.73,-41.73,0,*4F
1506960457.23,3636,17.19,74138.3,2.05,-41.99,-42.19,0,*41
1506960458.45,3637,17.25,74142.0,2.01,-42.13,-42.25,0,*4A
1506960459.67,3638,17.19,74140.0,2.03,-42.05,-42.25,0,*40
1506960460.89,3639,17.19,74138.0,2.03,-41.99,-42.05,0,*45
1506960462.15,3640,17.19,74134.0,2.03,-42.19,-42.19,0,*4D
1506960463.37,3641,17.25,74138.0,2.03,-41.99,-42.05,0,*4A
1506960464.63,3642,17.19,74138.3,2.01,-42.05,-42.05,0,*4D
1506960465.88,3643,17.19,74136.8,2.01,-41.81,-41.87,0,*4A
1506960467.15,3644,17.19,74136.0,2.01,-42.05,-42.05,0,*4B
1506960468.39,3645,17.19,74134.3,2.01,-42.05,-42.13,0,*4D
1506960469.63,3646,17.19,74134.8,2.01,-42.05,-42.13,0,*4E
1506960470.85,3647,17.19,74134.0,1.99,-42.05,-42.25,0,*48
1506960472.13,3648,17.19,74138.0,1.97,-42.19,-42.31,0,*41
1506960473.32,3649,17.19,74138.0,1.99,-42.13,-42.25,0,*41
1506960474.57,3650,17.19,74138.3,1.97,-42.13,-42.31,0,*42
1506960475.85,3651,17.19,74138.3,1.97,-42.19,-42.31,0,*49
1506960477.09,3652,17.19,74138.3,1.97,-42.31,-42.37,0,*46
1506960478.34,3653,17.19,74140.0,1.97,-42.31,-42.51,0,*47
1506960479.56,3654,17.19,74136.3,1.95,-42.37,-42.45,0,*41
1506960480.78,3655,17.19,74136.3,1.95,-42.25,-42.45,0,*43
1506960482.0,3656,17.19,74134.5,1.95,-42.25,-42.57,0,*43
1506960483.24,3657,17.19,74134.0,1.93,-42.37,-42.57,0,*47
1506960484.48,3658,17.19,74136.8,1.93,-42.25,-42.57,0,*4B
1506960485.7,3659,17.19,74138.3,1.93,-42.37,-42.37,0,*4F
1506960486.95,3660,17.19,74140.3,1.93,-42.19,-42.37,0,*49
1506960488.17,3661,17.19,74138.5,1.93,-41.99,-42.13,0,*45
1506960489.39,3662,17.19,74136.8,1.93,-41.99,-42.25,0,*43
1506960490.64,3663,17.19,74134.3,1.93,-42.13,-42.19,0,*4C
1506960491.86,3664,17.19,74138.5,1.91,-42.25,-42.45,0,*45
1506960493.13,3665,17.19,74136.8,1.89,-42.31,-42.45,0,*48
1506960494.35,3666,17.19,74138.3,1.91,-42.45,-42.63,0,*45
1506960495.58,3667,17.19,74138.8,1.91,-42.31,-42.63,0,*47
1506960496.83,3668,17.19,74140.3,1.89,-42.25,-42.31,0,*43
1506960498.08,3669,17.19,74138.5,1.91,-42.05,-42.19,0,*43
1506960499.33,3670,17.19,74136.3,1.89,-41.87,-42.05,0,*46
1506960500.55,3671,17.19,74138.8,1.91,-41.99,-42.19,0,*4C
1506960501.8,3672,17.19,74140.5,1.85,-42.13,-42.31,0,*41
1506960503.02,3673,17.19,74140.8,1.85,-41.87,-41.73,0,*4B
1506960504.25,3674,17.19,74142.0,1.85,-41.87,-41.87,0,*47
1506960505.51,3675,17.19,74142.3,1.85,-42.05,-42.05,0,*46
1506960506.72,3676,17.19,74140.3,1.85,-41.49,-41.49,0,*45
1506960508.0,3677,17.19,74140.5,1.85,-41.67,-41.67,0,*44
1506960509.24,3678,17.19,74144.5,1.85,-41.87,-41.93,0,*4E